ONEWEB-0197, 48236

Orbit data source: Space-Track

ONEWEB-0197, 48236 is a payload satellite owned by One Web (NAA) (UK) in LEO that was launched on Sun, 25 Apr 2021 UTC via a SOYUZ-2-1B launch vehicle from the Vostochny Cosmodrome (VOSTO). Payload-class satellites include a variety of spacecraft equipped with specific instruments for various scientific and technological missions. These include communications satellites like Starlink; space stations such as the ISS; scientific satellites like the Hubble; Earth observation satellites from companies like Planet Labs, Umbra, and HawkEye 360; GPS; miniature CubeSats for education and research; and military/defense satellites.

Loading next visibility...
Identifier
48236, 2021-031AC
Orbit
LEO
Country
Flag of UKUK
Related business
Manufacturer
One Web
Mission
Operational Commercial Communications
Bus & Motor
ARROW, Unknown motor
Mass
148 kg wet, ~140 kg dry
Launch date (UTC)
2021-04-25 (5 years ago)
Launch vehicle
SOYUZ-2-1B
Launch site
Vostochny Cosmodrome (VOSTO)
Object type
Payload
Rocket body
Debris
Shape & HBR
Trap Box + 2 Pan, 6.7 m
Radar Cross Section
3.464 m², Large (>1 m²)

Expand to show TLE details & history
Last TLE update: 1 day ago

TLE from 1 day ago
0 ONEWEB-0197
1 48236U 21031AC  25306.47153800  .00000105  00000-0  24830-3 0  9990
2 48236  87.9009 334.8569 0001560  88.9590 271.1718 13.14501671218408
Epoch: 2025-11-02T11:19Z
TLE epoch observation values (Epoch: 2025-11-02T11:19:00.883Z)
Latitude
-0.00005°
Longitude
123.11643°
Altitude
1,208.664 km
Speed
7.25 km/s
True Right ascension
22h 19m 25s
True Declination
0° 00' 00"
Sunlit
Object was in daylight at epoch
Visualization orbit readout
Latitude
Unknown
Longitude
Unknown
Altitude
Unknown
Speed
Unknown
Apparent Right ascension
Unknown
Apparent Declination
Unknown
Sunlit
N/A
Visualization observer readout
Local Sidereal Time
10:03:47
Azimuth
Unknown
Elevation
Unknown
Doppler factor
Unknown
Orbital elements
Apogee altitude
1,204.091 km
Perigee altitude
1,201.726 km
Semi-major axis
7,581.045 km
Eccentricity
0.00016
Inclination
87.9009°
RAAN
334.8569°
Arg. of periapsis
88.959°
True anomaly
271.15393°
Mean anomaly
271.1718°
Eccentric anomaly
271.16286°
Mean motion
3.28813 °/min
Orbital period
109.48 mins
BSTAR
0.0002483
Loading maneuver chart data...
Computing Atmospheric mass density...
Loading historical data...
Loading historical data...
Loading historical data...
Loading historical data...
Loading historical data...
Loading historical data...
Loading historical data...

Documentation

Showing up to 5 results
|